Temp
70 70 68 69 66 68 71 73 75 73 76 75 76 77 78 79 80 83 85 72 68 69 71 73 75 75 75 74 73 72 72 73 72 72 71 70 69 70 70 69 69 69 69
70 73 73 73 73 73 74 74 73 74 75 74 75 75 75 76 78 77 81 82 68 67 69 71 72 73 74 73 72 72 72 72 72 72 71 70 69 69 69 69 69 69 69
66 69 71 71 70 71 70 73 72 74 74 75 74 75 76 76 77 76 77 79 79 69 65 67 67 69 70 71 73 72 71 70 71 72 71 70 70 69 69 69 69 69 69
65 67 68 67 68 69 69 71 70 70 72 72 72 74 75 75 75 74 76 76 79 80 71 63 64 66 67 69 70 72 71 71 71 71 71 70 70 69 69 68 68 68 69
62 66 66 64 65 67 66 66 68 66 68 68 69 72 73 74 73 76 75 75 73 71 66 63 60 60 61 64 67 69 71 71 70 71 72 71 69 68 68 67 67 68 68
60 64 63 62 64 66 64 63 62 65 65 65 67 70 72 73 75 73 69 71 68 68 68 67 68 66 59 59 61 65 67 69 71 71 71 71 70 68 67 67 67 68 68
58 60 63 62 63 62 60 61 63 62 65 64 66 68 72 71 70 71 71 69 68 68 66 66 67 68 62 56 57 58 60 63 64 64 65 66 69 67 67 67 67 68 68
57 58 59 59 59 61 59 59 59 61 64 62 60 63 66 68 69 71 71 66 63 65 64 64 63 62 61 56 53 53 54 57 60 61 62 62 64 65 67 67 67 68 68
56 57 57 58 58 59 58 57 57 56 59 61 59 59 60 60 59 70 68 69 64 65 63 60 60 59 58 57 55 51 51 51 55 58 59 60 61 62 63 65 67 68 68
55 55 55 56 56 57 56 56 57 57 57 56 62 60 58 55 55 54 64 63 63 64 64 65 63 57 56 54 51 50 49 49 51 54 57 58 59 60 61 62 63 66 67
55 54 55 55 55 56 53 53 54 55 57 56 55 56 56 59 51 47 45 53 58 62 64 64 60 60 59 58 54 50 48 47 49 51 54 55 57 58 59 60 61 63 64
55 53 53 54 54 54 53 54 53 52 53 53 55 51 49 45 44 43 42 45 46 56 60 53 51 54 54 54 54 48 47 46 47 49 51 52 54 55 57 58 59 61 62
53 51 52 51 53 53 51 52 52 51 51 51 50 49 47 44 44 44 43 44 45 53 56 46 43 43 46 46 48 46 45 45 45 47 49 49 50 51 53 54 55 56 57
51 51 51 51 51 51 51 51 52 51 50 49 47 46 46 43 43 42 39 37 38 48 49 39 42 41 42 42 44 45 46 44 44 45 46 47 48 48 49 50 51 52 53
50 50 50 49 49 49 49 49 49 48 49 48 47 46 46 43 42 41 41 39 36 34 42 40 42 46 47 45 42 44 45 43 42 43 43 44 45 46 46 47 47 48 49
49 49 49 49 48 47 48 48 47 47 47 47 47 45 45 43 44 41 39 39 39 36 34 41 40 41 44 45 43 40 40 43 41 41 42 42 43 43 44 44 45 45 46
48 48 48 47 46 46 46 46 45 45 44 44 44 43 42 43 43 43 41 39 38 36 33 39 42 42 40 40 40 39 38 41 41 39 40 41 41 40 40 41 42 43 43
47 47 46 45 45 44 45 44 43 44 43 42 43 43 42 45 43 43 44 39 40 41 37 35 40 39 39 39 39 37 38 43 39 39 37 39 39 39 38 39 39 40 41
46 45 45 44 43 43 43 43 43 42 42 42 42 41 40 41 41 42 41 41 42 43 41 40 38 40 38 37 38 38 37 42 41 39 38 37 39 38 38 37 37 38 39
46 45 44 42 41 42 42 42 43 42 41 40 40 40 39 38 38 39 39 38 39 40 40 40 39 37 36 36 37 35 37 38 35 39 41 37 38 40 38 36 35 35 37
45 44 42 41 42 41 42 42 42 42 41 40 39 38 36 32 29 31 36 35 37 36 36 36 35 35 32 31 31 35 38 38 37 34 40 39 44 44 41 37 35 34 34
42 43 41 41 39 38 31 35 40 41 40 40 38 38 37 34 28 26 27 27 28 30 31 31 30 29 28 28 31 33 36 36 36 35 37 37 42 43 42 38 32 32 32
41 40 40 40 38 35 31 32 35 40 38 36 35 37 35 34 33 34 26 27 26 26 26 30 26 23 22 24 28 31 34 35 30 28 32 33 34 37 39 38 32 31 31
33 32 33 36 36 33 30 31 33 36 34 32 32 31 30 29 28 32 31 27 24 23 24 26 24 24 23 25 28 31 34 35 34 28 26 27 28 29 34 36 32 31 31
31 31 31 33 31 30 30 31 34 33 29 29 30 29 29 26 23 24 26 23 22 21 22 22 22 22 22 23 24 30 28 29 26 24 21 23 25 26 30 32 33 32 32
30 32 30 30 30 29 29 30 32 33 30 30 30 28 26 24 23 22 23 22 19 18 21 21 22 23 23 22 22 22 24 24 22 22 19 21 23 24 25 32 31 32 33
MSLP
1018.29 1018.45 1018.70 1018.70 1018.98 1018.87 1018.63 1018.35 1018.21 1018.08 1017.68 1017.64 1017.51 1017.31 1017.00 1016.76 1016.59 1016.28 1015.70 1015.85 1016.35 1016.59 1016.73 1016.52 1016.25 1016.20 1016.19 1016.18 1016.19 1016.22 1016.35 1016.64 1016.88 1017.02 1017.28 1017.42 1017.77 1018.89 1019.13 1019.25 1019.62 1020.10 1020.53
1018.71 1018.32 1018.29 1018.38 1018.49 1018.48 1018.48 1018.30 1018.35 1018.01 1017.73 1017.76 1017.41 1017.35 1017.25 1016.94 1016.64 1016.56 1016.15 1015.81 1016.04 1016.30 1016.43 1016.45 1016.38 1016.23 1016.08 1015.92 1015.72 1015.76 1015.85 1015.83 1016.11 1016.25 1016.23 1016.44 1016.12 1017.37 1018.35 1018.81 1018.48 1019.00 1019.62
1019.41 1018.94 1018.70 1018.69 1018.90 1018.87 1018.78 1018.56 1018.45 1018.04 1017.70 1017.52 1017.32 1017.12 1016.93 1016.59 1016.34 1016.42 1016.31 1015.96 1015.61 1015.65 1016.04 1016.30 1016.27 1016.11 1015.93 1015.77 1015.46 1015.41 1015.42 1015.55 1015.77 1015.99 1015.89 1016.22 1016.42 1016.88 1017.47 1018.12 1018.54 1018.33 1018.60
1019.88 1019.48 1019.18 1019.25 1019.39 1019.23 1019.08 1018.78 1018.60 1018.21 1017.93 1017.70 1017.44 1017.07 1016.79 1016.59 1016.42 1016.42 1016.16 1016.14 1015.81 1015.57 1015.77 1016.73 1016.56 1016.37 1016.10 1015.75 1015.66 1015.36 1015.17 1015.32 1015.34 1015.52 1015.48 1015.66 1015.92 1016.21 1016.67 1017.30 1017.84 1018.12 1018.24
1020.47 1019.91 1019.83 1019.97 1019.87 1019.65 1019.55 1019.28 1018.89 1018.79 1018.25 1018.02 1017.73 1017.15 1016.78 1016.51 1016.36 1016.00 1015.98 1016.01 1016.46 1016.86 1017.10 1017.19 1017.18 1017.01 1016.61 1016.06 1015.62 1015.32 1015.18 1014.97 1014.90 1014.92 1014.75 1015.03 1015.19 1015.45 1015.72 1016.32 1016.80 1017.38 1017.59
1020.98 1020.40 1020.38 1020.47 1020.10 1019.81 1019.81 1019.79 1019.53 1019.13 1018.83 1018.47 1017.73 1016.83 1016.63 1016.50 1016.32 1016.37 1016.81 1016.78 1017.22 1017.35 1017.39 1017.53 1017.20 1017.10 1017.16 1016.86 1016.39 1015.80 1015.46 1014.77 1014.63 1014.44 1014.40 1014.42 1014.63 1014.97 1015.21 1015.68 1016.04 1016.38 1016.77
1021.46 1020.98 1020.61 1020.56 1020.39 1020.31 1020.33 1020.06 1019.59 1019.25 1018.73 1018.79 1017.56 1016.76 1016.15 1016.61 1016.60 1016.55 1016.61 1016.80 1017.07 1017.47 1017.79 1017.58 1017.38 1017.36 1017.38 1017.69 1017.43 1017.07 1016.81 1015.85 1015.05 1014.84 1014.80 1014.31 1014.32 1014.57 1014.79 1015.03 1015.55 1015.70 1015.98
1021.77 1021.48 1021.14 1020.96 1020.85 1020.47 1020.57 1020.47 1020.21 1019.58 1019.26 1019.49 1018.82 1017.71 1016.24 1016.02 1016.46 1016.72 1016.80 1017.39 1017.88 1017.96 1018.05 1018.14 1018.07 1017.86 1017.94 1018.16 1018.30 1018.03 1017.69 1016.99 1016.04 1015.65 1015.18 1014.87 1014.68 1014.36 1014.33 1014.31 1014.49 1014.73 1014.90
1021.98 1021.74 1021.56 1021.28 1021.09 1020.87 1020.93 1021.01 1020.92 1020.68 1019.87 1019.84 1020.00 1019.28 1017.93 1017.09 1017.52 1016.37 1017.03 1017.28 1017.94 1017.84 1017.94 1018.53 1018.49 1018.45 1018.40 1018.65 1018.54 1018.52 1018.28 1017.85 1017.01 1016.42 1015.68 1015.17 1014.87 1014.56 1014.13 1013.84 1013.76 1013.88 1013.92
1022.08 1022.01 1021.81 1021.66 1021.54 1021.44 1021.56 1021.59 1021.58 1021.28 1020.83 1020.31 1019.99 1020.20 1020.38 1020.29 1019.18 1018.06 1017.48 1017.79 1018.16 1017.99 1017.60 1017.59 1017.81 1018.59 1018.85 1018.98 1019.25 1019.22 1018.46 1017.90 1017.42 1016.98 1015.89 1015.46 1014.88 1014.61 1014.31 1013.86 1013.65 1013.29 1013.20
1022.24 1022.30 1022.17 1022.13 1021.97 1021.85 1022.23 1022.15 1021.95 1021.82 1021.45 1020.99 1020.83 1020.73 1020.66 1020.38 1021.16 1020.79 1019.58 1018.80 1019.16 1018.36 1017.92 1017.66 1017.98 1018.21 1018.80 1018.95 1018.96 1019.32 1018.93 1018.23 1017.76 1016.96 1016.82 1016.25 1015.27 1014.44 1014.25 1013.79 1013.56 1013.29 1013.21
1022.22 1022.67 1022.66 1022.48 1022.38 1022.41 1022.65 1022.63 1022.70 1022.63 1022.35 1022.12 1021.69 1021.99 1021.98 1021.92 1022.13 1022.10 1021.58 1020.68 1020.19 1019.22 1018.81 1019.49 1019.63 1019.65 1020.17 1019.90 1019.39 1019.73 1019.36 1018.81 1018.26 1017.62 1017.00 1016.28 1015.78 1014.96 1014.35 1014.13 1013.94 1013.55 1013.30
1022.25 1022.83 1022.90 1022.81 1022.74 1022.77 1023.07 1023.01 1022.87 1022.83 1022.89 1022.89 1022.88 1022.66 1023.17 1023.63 1023.80 1023.36 1022.91 1021.74 1021.00 1019.97 1019.28 1020.94 1021.58 1021.79 1021.60 1021.12 1020.50 1020.23 1019.64 1019.17 1018.69 1018.00 1017.41 1016.88 1016.27 1015.46 1015.02 1014.90 1014.49 1014.05 1013.96
1022.43 1022.86 1023.02 1023.24 1023.26 1023.21 1023.28 1023.36 1023.21 1023.15 1023.11 1023.11 1023.14 1023.61 1023.73 1024.30 1024.50 1024.19 1024.13 1023.51 1021.95 1020.45 1020.32 1021.58 1022.13 1022.09 1022.11 1021.86 1021.14 1020.26 1019.66 1019.69 1019.36 1018.77 1018.04 1017.60 1016.58 1016.10 1015.84 1015.60 1015.22 1014.70 1014.64
1022.69 1023.11 1023.16 1023.27 1023.90 1023.84 1023.66 1023.65 1023.62 1023.40 1023.41 1023.56 1023.55 1023.76 1024.07 1024.64 1024.84 1025.09 1024.87 1024.61 1023.83 1022.47 1021.44 1021.69 1021.54 1021.73 1021.91 1021.79 1021.55 1020.67 1020.13 1020.05 1019.96 1019.28 1018.78 1018.22 1017.53 1017.03 1016.81 1016.34 1015.96 1015.47 1015.18
1022.91 1023.47 1023.41 1023.53 1024.00 1024.12 1024.02 1023.94 1023.86 1023.81 1023.54 1024.03 1023.98 1024.16 1024.29 1024.86 1024.84 1025.06 1025.21 1025.14 1024.45 1023.94 1023.08 1022.34 1022.49 1022.81 1022.42 1021.88 1021.70 1021.48 1020.95 1020.46 1020.54 1020.10 1019.23 1018.90 1018.44 1017.86 1017.57 1017.16 1016.77 1016.22 1015.77
1022.94 1023.38 1023.40 1023.66 1023.91 1024.25 1024.21 1024.68 1024.46 1024.36 1024.29 1024.41 1024.23 1024.30 1024.63 1024.73 1025.11 1025.31 1025.51 1025.23 1024.60 1024.52 1023.88 1022.87 1022.68 1022.88 1022.90 1022.57 1022.21 1021.87 1021.45 1021.08 1020.91 1020.77 1020.20 1019.76 1019.25 1018.98 1018.46 1018.38 1017.70 1017.23 1016.65
1023.10 1023.45 1023.44 1023.75 1024.08 1024.40 1024.64 1024.97 1025.11 1024.78 1024.84 1024.60 1024.54 1024.29 1024.40 1024.74 1025.44 1025.59 1025.27 1024.92 1024.50 1024.27 1024.24 1023.14 1022.96 1023.32 1023.34 1023.10 1022.70 1022.04 1021.71 1021.46 1021.54 1021.29 1021.05 1020.29 1019.82 1019.62 1019.84 1019.11 1018.62 1018.09 1017.63
1023.69 1023.59 1023.69 1024.02 1024.26 1024.80 1025.21 1025.21 1025.37 1025.34 1025.25 1024.97 1025.10 1025.25 1025.59 1025.72 1025.69 1025.91 1025.44 1025.12 1024.64 1024.46 1024.25 1023.66 1023.40 1023.60 1023.60 1023.54 1022.46 1021.98 1021.89 1021.31 1021.67 1021.57 1021.29 1021.21 1020.57 1020.62 1020.42 1020.20 1019.62 1018.99 1018.47
1023.70 1023.66 1024.27 1024.62 1024.81 1025.25 1025.28 1025.07 1025.35 1025.59 1025.29 1025.38 1025.44 1025.87 1026.53 1027.08 1027.00 1026.40 1026.04 1025.94 1025.33 1025.00 1024.61 1024.10 1023.96 1024.03 1024.05 1023.85 1022.95 1022.04 1021.42 1021.72 1022.11 1021.95 1021.36 1021.68 1021.33 1020.88 1020.95 1020.28 1020.30 1020.15 1019.28
1023.49 1024.04 1024.57 1024.93 1025.25 1025.82 1025.64 1025.88 1025.88 1025.31 1025.51 1025.37 1026.40 1026.78 1027.69 1028.98 1029.02 1028.24 1027.46 1027.15 1026.30 1026.19 1025.69 1025.20 1025.11 1024.99 1024.94 1024.50 1023.49 1022.74 1021.67 1021.58 1022.08 1022.96 1021.34 1021.53 1020.48 1020.40 1020.83 1020.52 1021.02 1020.68 1019.77
1023.78 1024.22 1024.74 1025.37 1026.08 1026.56 1027.45 1027.22 1026.07 1025.90 1025.68 1026.00 1026.41 1027.16 1027.78 1028.86 1029.41 1029.33 1029.50 1029.01 1028.60 1028.09 1027.32 1027.00 1027.03 1026.70 1026.46 1025.97 1024.87 1023.69 1022.63 1022.20 1021.85 1023.63 1022.41 1021.93 1021.04 1020.54 1020.72 1021.56 1022.01 1021.46 1020.97
1024.30 1024.48 1025.16 1025.62 1026.38 1027.14 1028.01 1027.67 1026.80 1026.33 1027.37 1027.13 1027.60 1027.59 1028.34 1029.19 1028.59 1028.57 1030.03 1029.51 1029.45 1029.72 1029.53 1028.59 1028.60 1028.77 1028.18 1027.64 1026.32 1024.93 1024.02 1023.47 1024.34 1025.13 1023.80 1022.71 1022.94 1021.73 1021.95 1022.14 1022.57 1022.04 1021.76
1025.11 1025.60 1025.96 1026.20 1026.91 1028.15 1028.69 1028.24 1027.36 1027.42 1028.11 1028.81 1028.75 1028.98 1029.69 1029.70 1029.81 1029.14 1029.51 1029.92 1030.26 1030.76 1030.53 1030.13 1030.18 1030.02 1029.62 1028.85 1027.36 1026.10 1024.93 1024.58 1024.86 1025.83 1025.70 1024.00 1024.20 1023.52 1023.25 1022.75 1023.08 1022.91 1022.55
1025.66 1025.88 1026.68 1026.75 1027.54 1028.53 1029.10 1028.44 1027.42 1028.14 1028.98 1029.58 1029.60 1029.99 1030.42 1030.55 1030.75 1030.81 1030.52 1030.46 1030.88 1031.17 1031.48 1031.46 1031.22 1030.90 1030.42 1029.78 1028.85 1027.22 1026.27 1025.56 1025.70 1026.44 1027.19 1025.81 1024.98 1023.89 1023.35 1023.14 1023.36 1023.24 1022.74
1025.79 1026.36 1026.98 1027.40 1028.18 1028.80 1029.11 1029.14 1028.20 1028.35 1029.19 1030.08 1030.06 1030.71 1031.36 1031.26 1031.22 1031.39 1031.31 1031.07 1031.31 1031.76 1031.62 1031.33 1031.02 1030.75 1030.51 1030.27 1029.85 1029.35 1028.58 1027.62 1027.29 1026.97 1028.22 1027.11 1025.94 1025.18 1023.72 1023.01 1022.87 1022.54 1022.09
Wind_Speed
4 4 4 3 3 3 3 2 2 3 4 5 6 6 6 7 7 7 7 3 2 7 13 16 18 18 16 14 16 20 20 21 21 22 22 22 20 20 21 21 19 16 15
3 3 3 3 3 4 4 4 4 4 4 4 6 6 8 7 7 8 7 9 4 4 7 12 15 17 17 16 17 18 19 23 23 23 24 24 24 24 22 22 23 22 19
5 4 4 4 4 4 4 3 3 3 4 4 6 6 7 7 6 7 7 7 8 7 1 8 10 12 14 16 10 10 14 15 17 21 20 21 21 21 21 21 21 21 22
6 5 4 5 5 4 4 4 4 5 4 5 6 6 6 7 7 8 7 7 7 8 7 15 13 12 15 15 18 18 15 15 18 20 20 22 21 21 21 21 20 21 21
6 5 5 5 4 3 4 4 4 5 5 5 7 6 5 5 5 4 6 6 9 9 6 9 12 14 20 18 14 17 20 21 19 18 20 22 21 21 22 20 20 21 21
7 5 5 5 4 4 5 5 5 5 4 6 8 6 5 4 3 4 6 4 7 8 8 10 7 7 14 20 22 20 16 13 20 23 20 20 23 19 16 18 18 21 22
6 5 4 5 4 5 6 6 5 6 5 8 6 4 3 3 3 3 5 5 7 8 9 9 7 7 6 17 21 22 21 19 18 17 16 18 19 17 16 18 19 22 24
6 6 5 5 6 4 7 8 8 5 4 6 6 6 2 6 4 2 3 5 7 7 9 10 10 9 7 7 12 20 22 21 19 17 16 16 12 9 16 19 19 20 23
7 7 7 6 6 6 6 7 8 8 5 4 6 6 4 4 8 4 1 3 6 5 5 6 8 8 8 7 10 14 19 18 18 18 16 16 14 12 12 9 20 23 21
7 7 8 8 8 6 7 6 6 6 6 5 1 4 4 3 4 5 5 9 6 10 8 6 3 5 7 7 12 16 18 18 17 15 19 16 14 13 13 13 12 13 19
7 7 7 7 7 6 6 6 6 6 5 4 5 5 5 3 4 3 7 6 11 10 7 7 8 5 6 7 8 11 17 17 18 17 14 14 15 14 14 15 13 12 12
5 6 6 6 6 6 6 5 6 7 6 6 5 6 5 4 5 4 6 8 9 8 9 9 9 9 10 11 11 19 14 17 16 16 16 15 15 16 16 17 16 14 11
5 5 5 5 5 6 6 5 5 6 7 7 7 6 6 6 5 5 7 8 7 10 2 7 8 8 8 9 10 19 15 17 16 16 16 17 17 18 18 16 17 17 17
5 6 6 6 6 5 5 5 4 5 6 6 9 8 5 4 5 5 5 6 7 7 4 5 4 6 8 9 11 19 10 16 16 15 17 17 19 20 19 19 18 19 19
6 6 6 7 6 6 5 6 5 6 6 6 7 6 5 5 4 4 5 5 4 5 9 5 6 12 9 6 11 11 8 18 17 17 17 19 20 21 20 20 21 21 21
7 7 7 7 6 6 6 5 5 6 7 6 6 7 7 5 5 4 5 4 4 5 6 6 5 10 10 9 10 10 10 9 18 18 19 19 21 23 23 22 22 23 23
8 7 8 7 7 6 6 6 7 7 7 7 7 8 8 7 5 4 3 4 4 4 7 8 5 7 11 12 9 8 7 8 8 17 18 19 20 23 24 23 23 23 24
8 8 8 8 7 7 6 6 6 7 7 8 8 9 9 6 6 6 4 5 5 4 6 8 7 7 9 10 9 8 7 7 7 14 15 17 21 23 24 24 24 22 23
8 8 8 8 8 7 6 6 6 7 8 9 10 10 10 8 7 6 7 6 6 4 5 5 6 5 7 9 8 6 5 6 7 10 13 13 18 20 22 24 25 24 23
9 9 8 8 7 7 6 7 7 7 9 10 10 10 11 10 10 9 8 8 7 6 6 5 6 7 8 9 8 7 4 3 9 8 7 5 4 16 19 24 26 25 23
8 10 9 8 7 5 4 6 6 8 9 11 9 10 11 12 13 16 9 10 9 7 6 7 7 7 9 10 11 9 6 2 6 10 6 8 3 5 11 20 21 26 25
9 10 9 8 8 7 8 6 6 8 9 8 8 8 9 6 12 15 15 18 17 11 10 7 7 9 12 11 10 9 8 8 6 11 9 10 7 7 9 11 23 24 24
9 10 9 9 10 11 10 9 9 10 9 10 9 8 7 5 7 8 9 11 17 16 14 9 8 9 10 12 11 11 9 7 7 11 10 8 9 6 7 10 19 24 24
8 9 8 8 10 10 10 11 13 12 11 10 10 9 7 9 10 7 8 9 10 12 12 9 10 10 11 13 12 9 10 4 4 9 13 6 10 6 4 6 12 20 20
10 10 8 9 10 10 10 9 11 10 10 9 10 10 8 9 12 9 7 8 8 8 8 12 12 13 14 19 18 9 10 8 4 6 12 6 10 9 4 4 7 16 18
11 10 10 9 11 10 10 8 8 8 9 7 8 11 13 11 13 10 6 6 7 7 7 7 8 10 12 13 18 13 10 9 7 5 12 8 10 9 5 3 9 10 12
Wind_Direction
82 84 83 80 73 59 30 10 17 342 330 326 314 312 304 303 304 298 307 359 266 293 301 296 288 281 271 245 224 219 212 213 210 206 205 202 199 214 210 204 204 208 211
47 69 82 62 55 27 20 3 357 329 322 308 299 306 300 297 294 295 295 302 315 257 293 304 305 307 295 278 252 233 224 217 218 213 206 208 199 206 215 216 202 201 203
54 52 63 53 35 33 6 1 329 317 302 305 295 291 288 283 287 292 291 290 295 251 160 334 320 304 302 298 282 258 244 231 229 226 216 219 218 209 212 218 217 208 203
41 52 59 49 27 26 9 4 1 341 331 328 322 312 310 309 316 305 296 313 317 310 28 23 6 341 321 302 291 275 264 248 249 248 228 224 220 212 213 215 214 213 211
38 42 43 40 11 20 20 3 357 349 331 328 313 298 300 307 313 324 341 355 24 26 14 31 31 30 27 10 319 290 284 271 254 247 242 235 225 216 210 214 206 210 213
40 44 60 37 19 26 31 11 355 353 343 332 305 298 300 310 13 40 69 39 57 40 31 15 11 33 43 31 26 23 7 325 275 260 253 247 231 227 221 221 224 216 219
52 48 63 55 41 39 28 14 354 2 8 353 315 331 270 132 76 66 54 61 45 53 34 22 13 359 50 37 30 28 19 17 22 20 24 24 255 233 221 224 228 223 217
63 64 58 55 34 47 37 27 21 355 21 17 345 275 285 180 84 72 102 83 43 25 18 19 15 19 6 42 31 23 15 11 17 15 15 15 7 349 244 216 223 232 222
74 67 63 59 57 43 41 29 17 18 355 27 21 342 308 340 338 163 109 23 4 356 9 7 11 19 18 24 19 19 12 7 9 4 10 14 8 356 345 331 233 231 228
80 70 67 61 57 56 45 40 28 13 352 28 45 22 3 342 326 302 338 340 333 317 332 324 315 42 27 15 32 17 11 13 9 360 5 8 19 11 359 341 329 266 229
78 73 70 71 72 70 66 48 44 32 42 25 28 6 16 334 67 297 295 331 336 322 334 319 36 4 27 19 32 3 15 15 11 12 6 2 4 21 15 4 348 327 308
99 82 85 77 71 78 64 56 51 43 35 38 40 40 29 24 358 346 317 324 318 312 331 37 33 21 6 355 19 349 27 22 16 15 12 15 17 26 32 23 19 10 339
120 104 101 89 90 85 80 64 68 64 48 45 36 50 41 28 356 341 317 332 313 312 288 59 44 25 5 354 5 340 38 33 17 20 22 29 31 32 34 35 33 34 21
122 127 120 107 89 89 93 77 70 61 59 59 55 48 57 37 5 4 342 334 322 319 62 15 87 36 1 350 358 333 43 40 24 28 34 36 40 39 39 40 41 41 39
130 135 125 110 100 86 77 86 66 66 63 56 61 60 50 39 20 359 354 333 331 324 323 30 355 6 343 351 4 339 34 38 29 29 43 40 43 44 43 43 41 42 42
134 145 129 115 101 91 85 87 90 66 72 61 55 48 39 31 20 12 355 333 330 327 287 4 6 354 341 346 13 354 352 42 36 25 41 44 47 45 42 43 42 41 41
145 144 125 112 104 96 86 82 80 85 76 79 72 60 46 41 22 6 344 337 347 341 306 318 340 358 337 352 1 357 359 35 44 31 33 50 48 50 44 40 38 41 41
139 144 126 114 102 93 90 98 87 80 77 72 64 60 49 32 13 7 353 357 358 345 317 324 355 352 346 350 354 6 10 55 21 33 33 42 48 48 43 41 36 36 42
145 134 123 115 108 104 109 102 99 94 81 72 59 52 42 29 29 11 17 0 358 352 341 332 349 6 357 353 354 23 25 40 36 20 48 29 54 48 45 40 37 32 41
150 123 113 113 115 126 126 120 116 107 85 73 71 62 52 35 28 15 27 15 6 2 3 357 9 7 4 5 356 5 43 49 37 0 69 72 33 59 49 40 35 29 27
137 124 125 118 117 116 83 115 115 98 93 87 79 73 64 54 50 41 25 25 22 24 18 19 15 10 12 3 6 3 357 119 90 19 327 23 13 57 42 43 29 26 23
139 134 117 120 110 88 85 43 85 90 84 86 87 81 87 99 84 58 49 54 46 19 40 28 24 13 8 5 356 3 358 16 10 26 322 43 337 47 57 38 27 27 24
136 122 121 120 110 108 106 93 73 77 74 75 61 68 78 89 63 82 81 61 60 49 37 33 38 22 10 0 349 2 3 35 34 18 333 51 359 39 7 53 24 23 21
113 110 115 115 110 100 113 104 93 86 80 74 76 79 67 63 42 43 70 66 59 49 37 40 40 30 24 7 356 356 346 27 59 40 358 14 8 352 329 28 27 19 17
131 122 124 115 118 121 127 120 101 95 87 85 78 64 70 67 60 42 62 71 62 52 54 48 48 41 32 28 23 14 15 17 25 40 18 321 1 344 335 5 7 15 11
130 125 122 119 125 126 122 113 105 111 109 100 95 89 66 66 66 58 60 70 67 43 28 33 37 37 34 27 31 29 14 23 14 21 18 342 5 1 328 51 352 10 1